Stations météo

réclame
Mon MeteoGroup
Yeovilton, Grande-Bretagne (3853): Température de l'air & dewpoint: 12.11.2018 04:00:00 - 18.11.2018 04:00:00 (GMT)Yeovilton, Grande-Bretagne (3853): Température de l'air -20cm & Température de l'air -100cm: 12.11.2018 04:00:00 - 18.11.2018 04:00:00 (GMT)Yeovilton, Grande-Bretagne (3853): Vitesse du vent & gusts: 12.11.2018 04:00:00 - 18.11.2018 04:00:00 (GMT)Yeovilton, Grande-Bretagne (3853): Direction du vent: 12.11.2018 04:00:00 - 18.11.2018 04:00:00 (GMT)Yeovilton, Grande-Bretagne (3853): reduced air pressure: 12.11.2018 04:00:00 - 18.11.2018 04:00:00 (GMT)Yeovilton, Grande-Bretagne (3853): visibility: 12.11.2018 04:00:00 - 18.11.2018 04:00:00 (GMT)Yeovilton, Grande-Bretagne (3853): Ensoleillement: 12.11.2018 04:00:00 - 18.11.2018 04:00:00 (GMT)Yeovilton, Grande-Bretagne (3853): Quantités de précipitations: 12.11.2018 04:00:00 - 18.11.2018 04:00:00 (GMT)
Date & Time tt [°C] td [°C] tt -20cm [°C] tt -100cm [°C] ff [km/h] ff [knt] fx [km/h] fx [knt] dd ppp [hPa] vv [km] sd [min] rr [mm]
18.11.2018 04:00:00 - - - - - - - - - - - - -
18.11.2018 03:00:00 5,6 2,9 - - 18 10 - - E 1025,3 13 0 0,0
18.11.2018 02:00:00 5,8 3,2 - - 21 11 - - E 1025,3 14 0 0,0
18.11.2018 01:00:00 5,6 3,3 - - 24 13 - - E 1025,5 11 0 0,0
18.11.2018 00:00:00 5,7 3,4 - - 28 15 - - E 1025,3 12 - 0,0
17.11.2018 23:00:00 5,6 3,4 - - 18 10 - - ENE 1025,6 10 0 0,0
17.11.2018 22:00:00 6,0 3,5 - - 21 11 - - ENE 1025,3 14 0 0,0
17.11.2018 21:00:00 6,6 3,2 - - 18 10 - - E 1025,1 5 0 0,0
17.11.2018 20:00:00 7,4 3,5 - - 22 12 - - E 1024,8 20 0 0,0
17.11.2018 19:00:00 8,0 3,8 - - 26 14 - - E 1024,3 18 0 0,0
17.11.2018 18:00:00 7,8 4,1 - - 18 10 - - ENE 1024,1 14 0 0,0
17.11.2018 17:00:00 8,1 4,1 - - 16 9 - - ENE 1024,1 18 0 0,0
17.11.2018 16:00:00 9,3 4,7 - - 16 9 - - ENE 1024,1 15 48 0,0
17.11.2018 15:00:00 10,1 5,3 - - 22 12 - - ENE 1024,1 15 60 0,0
17.11.2018 14:00:00 10,2 5,1 - - 22 12 - - ENE 1024,5 14 60 0,0
17.11.2018 13:00:00 9,6 5,2 - - 22 12 - - E 1025,0 12 54 0,0
17.11.2018 12:00:00 9,3 5,7 - - 18 10 - - E 1025,1 10 48 0,0
17.11.2018 11:00:00 8,4 5,4 - - 21 11 - - E 1025,3 10 0 0,0
17.11.2018 10:00:00 8,4 5,5 - - 24 13 - - E 1025,3 17 0 0,0
17.11.2018 09:00:00 8,3 6,0 12,0 11,4 24 13 - - E 1025,3 30 0 0,0
17.11.2018 08:00:00 8,2 7,4 - - 15 8 - - E 1025,2 6 0 0,0
17.11.2018 07:00:00 8,2 7,6 - - 21 11 - - ENE 1024,8 6 0 0,0
17.11.2018 06:00:00 8,8 8,2 - - 21 11 - - ENE 1024,3 4,3 0 0,0
17.11.2018 05:00:00 8,9 8,0 - - 18 10 - - E 1024,5 12 0 0,0
17.11.2018 04:00:00 9,6 8,7 - - 16 9 - - E 1024,7 9 0 0,0
17.11.2018 03:00:00 10,0 9,1 - - 16 9 - - E 1024,6 7 0 0,0
17.11.2018 02:00:00 10,0 9,2 - - 18 10 - - E 1024,9 8 0 0,0
17.11.2018 01:00:00 10,4 9,4 - - 16 9 - - E 1024,7 7 0 0,0
17.11.2018 00:00:00 10,5 9,6 - - 21 11 - - E 1024,6 7 - 0,0
16.11.2018 23:00:00 10,7 9,8 - - 21 11 - - E 1024,5 8 0 0,0
16.11.2018 22:00:00 10,7 9,6 - - 13 7 - - E 1024,5 12 0 0,0
16.11.2018 21:00:00 10,6 9,4 - - 18 10 - - E 1024,3 10 0 0,0
16.11.2018 20:00:00 10,6 9,6 - - 18 10 - - ESE 1024,2 8 0 0,0
16.11.2018 19:00:00 11,2 10,0 - - 18 10 - - E 1024,2 11 0 0,0
16.11.2018 18:00:00 11,6 10,6 - - 16 9 - - E 1024,0 8 0 0,0
16.11.2018 17:00:00 11,6 10,6 - - 24 13 - - ESE 1023,6 7 0 0,0
16.11.2018 16:00:00 12,0 10,9 - - 16 9 - - E 1023,5 3,0 0 0,0
16.11.2018 15:00:00 12,7 11,5 - - 18 10 - - E 1023,3 3,5 0 0,0
16.11.2018 14:00:00 12,9 11,7 - - 15 8 - - ESE 1023,5 3,5 0 0,0
16.11.2018 13:00:00 13,0 11,8 - - 21 11 - - SE 1023,7 3,5 0 0,0
16.11.2018 12:00:00 13,3 11,9 - - 18 10 - - SE 1024,0 3,0 0 0,0
16.11.2018 11:00:00 13,5 12,2 - - 22 12 - - ESE 1024,0 3,0 0 0,0
16.11.2018 10:00:00 13,2 12,4 - - 15 8 - - ESE 1024,0 3,0 0 0,0
16.11.2018 09:00:00 13,0 11,7 12,0 11,4 13 7 - - ESE 1024,1 4,0 0 0,0
16.11.2018 08:00:00 12,7 11,3 - - 9 5 - - E 1023,7 5 0 0,0
16.11.2018 07:00:00 12,3 11,2 - - 4 2 - - E 1022,8 6 0 0,0
16.11.2018 06:00:00 12,4 11,3 - - 9 5 - - NE 1022,4 6 0 0,0
16.11.2018 05:00:00 12,6 11,4 - - 9 5 - - ESE 1021,8 6 0 0,0
16.11.2018 04:00:00 12,3 11,7 - - 11 6 - - ESE 1021,4 6 0 0,0
16.11.2018 03:00:00 12,4 11,8 - - 9 5 - - SE 1021,6 5 0 0,0
16.11.2018 02:00:00 12,5 11,8 - - 8 4 - - SE 1021,8 5 0 0,0
16.11.2018 01:00:00 12,4 11,8 - - 8 4 - - SE 1021,4 5 0 0,0
16.11.2018 00:00:00 12,5 11,8 - - 8 4 - - SE 1021,4 5 - 0,0
15.11.2018 23:00:00 12,4 11,6 - - 5 3 - - SE 1020,9 6 0 0,0
15.11.2018 22:00:00 12,3 11,5 - - 9 5 - - SE 1020,5 7 0 0,0
15.11.2018 21:00:00 12,5 11,7 - - 9 5 - - SE 1019,8 8 0 0,0
15.11.2018 20:00:00 12,4 11,7 - - 13 7 - - SE 1019,2 7 0 0,0
15.11.2018 19:00:00 12,3 12,0 - - 8 4 - - SE 1019,2 3,8 0 0,0
15.11.2018 18:00:00 12,5 12,1 - - 9 5 - - SE 1019,3 3,6 0 0,0
15.11.2018 17:00:00 12,6 11,9 - - 16 9 - - SSE 1018,8 1,5 0 0,0
15.11.2018 16:00:00 13,2 12,0 - - 9 5 - - ESE 1018,3 4,0 0 0,0
15.11.2018 15:00:00 14,1 12,2 - - 13 7 - - S 1018,6 10 0 0,0
15.11.2018 14:00:00 14,4 12,7 - - 13 7 - - SSE 1018,4 5 0 0,0
15.11.2018 13:00:00 13,6 12,3 - - 13 7 - - ESE 1018,9 4,0 0 0,0
15.11.2018 12:00:00 13,5 11,2 - - 9 5 - - SE 1019,2 10 0 0,0
15.11.2018 11:00:00 13,1 11,0 - - 21 11 - - SSE 1019,6 8 0 0,0
15.11.2018 10:00:00 11,9 9,8 - - 9 5 - - ESE 1019,7 8 48 0,0
15.11.2018 09:00:00 10,1 8,7 11,7 11,2 5 3 - - ESE 1019,8 10 36 0,0
15.11.2018 08:00:00 7,8 7,0 - - 9 5 - - ENE 1019,6 10 0 0,0
15.11.2018 07:00:00 8,4 7,6 - - 11 6 - - E 1019,2 10 0 0,0
15.11.2018 06:00:00 7,7 6,6 - - 8 4 - - E 1019,1 12 0 0,0
15.11.2018 05:00:00 9,0 7,9 - - 11 6 - - ESE 1019,1 10 0 0,0
15.11.2018 04:00:00 10,0 8,9 - - 9 5 - - ESE 1019,0 8 0 0,0
15.11.2018 03:00:00 11,1 10,2 - - 5 3 - - E 1019,0 8 0 0,0
15.11.2018 02:00:00 11,5 10,1 - - 8 4 - - E 1019,1 10 0 0,0
15.11.2018 01:00:00 11,1 9,3 - - 4 2 - - ESE 1019,3 10 0 0,0
15.11.2018 00:00:00 12,2 10,0 - - 11 6 - - SSE 1019,4 10 - 0,0
14.11.2018 23:00:00 11,9 9,7 - - 9 5 - - SSE 1019,4 10 0 0,0
14.11.2018 22:00:00 11,8 9,8 - - 9 5 - - S 1019,8 10 0 0,0
14.11.2018 21:00:00 11,8 9,8 - - 5 3 - - S 1019,9 10 0 0,0
14.11.2018 20:00:00 11,6 9,6 - - 9 5 - - SE 1020,0 10 0 0,0
14.11.2018 19:00:00 11,7 9,4 - - 9 5 - - SE 1020,0 10 0 0,0
14.11.2018 18:00:00 12,1 9,0 - - 13 7 - - S 1019,9 10 0 0,0
14.11.2018 17:00:00 11,6 8,9 - - 13 7 - - SSE 1019,8 10 0 0,0
14.11.2018 16:00:00 12,1 8,7 - - 15 8 - - S 1019,8 10 18 0,0
14.11.2018 15:00:00 13,0 8,7 - - 11 6 - - S 1019,9 10 54 0,0
14.11.2018 14:00:00 13,9 9,1 - - 21 11 - - S 1020,0 10 60 0,0
14.11.2018 13:00:00 14,0 8,7 - - 21 11 - - S 1020,4 10 60 0,0
14.11.2018 12:00:00 13,8 9,0 - - 24 13 - - S 1020,9 15 42 0,0
14.11.2018 11:00:00 13,6 8,7 - - 28 15 - - S 1021,4 10 12 0,0
14.11.2018 10:00:00 12,7 8,5 - - 28 15 46 25 S 1021,4 10 12 0,0
14.11.2018 09:00:00 12,8 9,6 11,4 11,4 21 11 - - S 1021,4 10 0 0,0
14.11.2018 08:00:00 12,3 9,4 - - 18 10 - - S 1021,3 10 0 0,0
14.11.2018 07:00:00 11,8 9,0 - - 21 11 - - S 1020,8 10 0 0,0
14.11.2018 06:00:00 12,0 9,0 - - 24 13 - - S 1020,9 10 0 0,0
14.11.2018 05:00:00 12,5 9,3 - - 24 13 - - S 1021,0 10 0 0,0
14.11.2018 04:00:00 12,5 9,5 - - 24 13 - - S 1021,1 10 0 0,0
14.11.2018 03:00:00 12,6 8,9 - - 22 12 - - S 1021,6 15 0 0,0
14.11.2018 02:00:00 12,7 9,1 - - 24 13 - - SSW 1022,2 15 0 0,0
14.11.2018 01:00:00 12,7 9,4 - - 24 13 - - SSW 1022,5 15 0 0,0
14.11.2018 00:00:00 12,6 8,6 - - 26 14 - - S 1023,0 10 - 0,0
13.11.2018 23:00:00 12,6 9,0 - - 21 11 - - SSW 1023,4 10 0 0,0
13.11.2018 22:00:00 12,7 9,3 - - 22 12 - - SSW 1023,4 10 0 0,0
13.11.2018 21:00:00 12,2 9,9 - - 11 6 - - S 1023,7 10 0 0,0
13.11.2018 20:00:00 10,5 8,3 - - 11 6 - - S 1023,8 10 0 0,0
13.11.2018 19:00:00 10,9 8,7 - - 9 5 - - S 1024,0 10 0 0,0
13.11.2018 18:00:00 10,6 8,5 - - 11 6 - - S 1023,7 10 0 0,0
13.11.2018 17:00:00 11,4 8,8 - - 15 8 - - SSW 1023,3 10 0 0,0
13.11.2018 16:00:00 12,2 8,9 - - 16 9 - - S 1023,0 10 6 0,0
13.11.2018 15:00:00 13,3 8,3 - - 21 11 - - SSW 1022,9 10 30 0,0
13.11.2018 14:00:00 13,0 7,8 - - 24 13 - - SSW 1022,9 10 42 0,0
13.11.2018 13:00:00 13,9 7,5 - - 18 10 - - SSW 1022,9 10 36 0,0
13.11.2018 12:00:00 13,2 7,4 - - 15 8 - - SW 1022,6 10 54 0,0
13.11.2018 11:00:00 12,5 7,7 - - 18 10 - - WSW 1022,3 10 60 0,0
13.11.2018 10:00:00 11,6 8,2 - - 13 7 - - SW 1021,6 10 60 0,0
13.11.2018 09:00:00 10,1 7,4 11,2 11,4 13 7 - - SW 1020,5 10 42 0,0
13.11.2018 08:00:00 7,7 6,5 - - 5 3 - - WSW 1019,8 10 0 0,0
13.11.2018 07:00:00 7,7 6,2 - - 4 2 - - S 1018,6 10 0 0,0
13.11.2018 06:00:00 8,3 6,3 - - 11 6 - - SW 1017,5 10 0 0,0
13.11.2018 05:00:00 8,1 6,2 - - 15 8 - - SSW 1016,3 15 0 0,0
13.11.2018 04:00:00 7,7 6,2 - - 15 8 - - SSW 1015,4 10 0 0,0
13.11.2018 03:00:00 9,4 6,8 - - 15 8 - - SW 1014,7 10 0 0,0
13.11.2018 02:00:00 9,3 6,9 - - 15 8 - - SSW 1014,1 10 0 0,0
13.11.2018 01:00:00 9,2 7,0 - - 13 7 - - SSW 1013,3 10 0 0,0
13.11.2018 00:00:00 9,9 6,9 - - 9 5 - - SW 1012,7 10 - 0,0
12.11.2018 23:00:00 10,2 7,4 - - 16 9 - - SW 1011,8 10 0 0,0
12.11.2018 22:00:00 10,0 6,9 - - 24 13 - - SSW 1011,2 10 0 0,0
12.11.2018 21:00:00 10,6 5,5 - - 26 14 - - SSW 1010,8 12 0 0,0
12.11.2018 20:00:00 11,8 7,5 - - 24 13 - - SW 1010,4 12 0 0,0
12.11.2018 19:00:00 11,5 7,7 - - 26 14 - - SSW 1010,3 10 0 0,0
12.11.2018 18:00:00 11,3 8,0 - - 21 11 - - SW 1010,0 10 0 0,2
12.11.2018 17:00:00 10,1 7,8 - - 35 19 63 34 SSW 1009,6 6 0 2,0
12.11.2018 16:00:00 12,8 8,7 - - 28 15 48 26 SSW 1009,1 10 6 0,0
12.11.2018 15:00:00 13,3 8,5 - - 29 16 54 29 SSW 1008,5 10 60 0,0
12.11.2018 14:00:00 13,6 8,5 - - 29 16 48 26 SSW 1008,3 10 48 0,0
12.11.2018 13:00:00 13,4 9,3 - - 31 17 57 31 SSW 1008,0 10 36 0,0
12.11.2018 12:00:00 13,0 9,4 - - 28 15 68 37 SSW 1007,8 10 42 0,4
12.11.2018 11:00:00 13,9 9,8 - - 28 15 - - SSW 1007,9 10 60 0,0
12.11.2018 10:00:00 13,1 8,9 - - 26 14 46 25 SSW 1007,7 10 60 0,0
12.11.2018 09:00:00 11,8 9,4 11,2 11,5 13 7 - - S 1007,4 10 24 0,0
12.11.2018 08:00:00 9,3 7,4 - - 11 6 - - SE 1007,0 10 0 0,2
12.11.2018 07:00:00 8,9 7,9 - - 11 6 - - S 1006,4 15 0 0,0
12.11.2018 06:00:00 7,0 5,1 - - 8 4 - - SE 1005,9 15 0 0,0
12.11.2018 05:00:00 8,8 7,2 - - 8 4 - - S 1005,6 15 0 0,0
12.11.2018 04:00:00 8,5 7,1 - - 9 5 - - SSE 1005,2 10 0 0,0

tt = Température de l'air
td = dewpoint
tt -20cm = Température de l'air -20cm
tt -100cm = Température de l'air -100cm
ff = Vitesse du vent
fx = gusts
dd = Direction du vent
ppp = reduced air pressure
vv = visibility
sd = Ensoleillement
rr = Quantités de précipitations

stations d'obs. à proximité